GSAT0218 (PRN E31)

Last updated on Feb. 28, 2020, 4:49 a.m. UTC

1 43058U 17079D   20057.23350569  .00000010  00000-0  00000-0 0  9992
2 43058  56.3548 284.8727 0003057 289.3973  70.6311  1.70473997 13758
UTC
Height (km)
Latitude
Longitude
Inclination
Orbital Period
UTC large
Height (km)
Speed (km/s)
/
Latitude / Longitude
Inclination (degrees)
Orbital Period (minutes)
Azimuth
Elevation
Range (km)
Doppler Factor
iOS Compass Heading
iOS Angle

Next 30 passes for location: Hong Kong

Rise time Rise Azimuth (degrees) Set time Set Azimuth (degrees) Duration Max altitude (degrees)

No matching passes for this satellites